Location: Unspecified
(0.0000°N, 0.0000°E)
Time: 19:08:29
(UTC+01:00)

BREEZE-M DEB (TANK) - Visible Passes

Search period start: 19 February 2018 00:00
Search period end: 01 March 2018 00:00
Orbit: 345 x 16292 km, 49.5° (Epoch: 18 February)

Date Brightness Start Highest point End Pass type
(mag) Time Alt. Az. Time Alt. Az. Time Alt. Az.
19 Feb 7.8 06:54:00 10° NNW 07:43:39 26° NNE 07:55:04 10° ENE visible
19 Feb 7.5 18:24:56 10° SE 18:41:17 15° ESE 19:28:25 10° ENE visible
19 Feb 8.4 23:24:25 10° SW 00:06:17 59° WNW 02:51:42 10° NNE visible
20 Feb 7.4 18:58:31 10° SSE 19:19:57 28° ESE 20:58:49 10° NE visible
21 Feb 8.5 00:06:23 10° WSW 00:55:06 46° NW 03:38:30 10° NNE visible
21 Feb 7.5 19:35:24 10° S 19:58:11 43° ESE 22:04:20 10° NE visible
22 Feb 8.7 00:50:41 10° WSW 01:46:52 35° NW 04:25:32 10° NNE visible
22 Feb 7.7 20:13:20 10° SSW 20:37:10 60° ESE 23:00:34 10° NE visible
23 Feb 8.7 01:39:51 10° W 02:45:40 25° NW 05:12:20 10° NE visible
23 Feb 7.8 20:51:54 10° SSW 21:17:38 77° ESE 23:52:23 10° NNE visible
24 Feb 8.5 02:43:13 10° WNW 05:33:15 21° N 05:57:50 10° NE visible
24 Feb 8.0 21:31:03 10° SW 22:00:03 85° WNW 00:41:54 10° NNE visible
25 Feb 8.3 04:53:52 10° NW 06:25:34 24° NNE 06:41:21 10° ENE visible
25 Feb 8.3 22:10:52 10° SW 22:44:42 70° WNW 01:30:17 10° NNE visible
26 Feb 7.7 06:15:33 10° NNW 07:11:39 30° NNE 07:23:09 10° E visible
26 Feb 7.4 17:50:25 10° SE 18:06:15 17° ESE 18:55:32 10° ENE visible
26 Feb 8.4 22:51:36 10° WSW 23:31:41 56° NW 02:18:15 10° NNE visible
27 Feb 7.0 07:11:15 10° NNW 07:55:01 40° NNE 08:03:43 10° E visible
27 Feb 7.3 18:24:58 10° SSE 18:44:31 30° ESE 20:20:24 10° NE visible
27 Feb 8.6 23:33:47 10° WSW 00:21:13 43° NW 03:06:19 10° NNE visible
28 Feb 7.4 19:02:03 10° S 19:22:39 46° ESE 21:25:40 10° NE visible
